COSMOS 2398

导读

COSMOS 2398是独联体(CIS)发射的“宇宙”系列卫星,该系列是世界上规模最大的卫星家族,涵盖应用卫星、科学卫星与技术试验卫星,多承担军事任务。 该星于2003年6月4日发射入轨,延续了系列军用卫星的定位,大概率承担侦察、导航或空间环境探测任务,服务于独联体的空间安全与战略观测需求,是苏联航天遗产在独立国家联合体时期的延续产物。

基本信息
目录编号:
27818
目录名称:
COSMOS 2398
国际标识:
2003-023A
轨道中心:
EARTH
卫星名称:
COSMOS 2398
卫星全名:
--
卫星状态:
在轨 (已飞行8409 天)
发射日期:
2003-06-04 UTC
国别 :
俄罗斯(独联体) (CIS)
星等 :
--
轨道信息
数据来源 国际轨道数据 AOE轨道数据
星历时间 2026-06-12T13:36:15+0800
14小时前
查看轨道信息
2026-06-07T16:00:00+0800
5天前
查看轨道信息
半长轴 7369.091km 7369.117km
偏心率 0.0030674 0.0030859
轨道倾角 82.948° 82.945°
近地点辐角 331.295° 344.937°
升交点赤经 138.975° 142.585°
平近点角 39.884° 309.754°
近地点 968.35km 968.239km
远地点 1013.558km 1013.721km
周期 104.925分钟 104.926分钟
每日圈数 13.724038 13.723966
详细信息
使用方式:
暂无
2D轨道图
3D轨道图
轨道高度分析图
轨道倾角分析图
轨道综合分析图
查看轨道综合分析图